Zurück zum Katalog

STARLINK-33756

AktivKommunikationVLEO
NORAD 63458·PAYLOAD·🇺🇸 United States

Gestartet Apr 4, 2025 von Vandenberg Space Force Base

Loading…

Nächste Überflüge (nächste 24 Stunden)

TLE

AktuellSource: CelesTrak SupGP

Epoche: Sep 15, 2026, 02:29 UTC

1 63458C 25069AB  26258.10395833  .00073041  00000+0  21583-2 0  2586
2 63458  53.1584 335.0106 0001147  90.1889 221.9390 15.34350193    11

Verfolge STARLINK-33756 in Echtzeit mit AllMySat

Download on the App Store